Location: Golden Pond Observatory
(36.7667°N, 88.0167°W)
Time: 13:08:49
(UTC-06:00)

N. Korean satellite - Visible Passes

Search period start: 21 November 2017 00:00
Search period end: 01 December 2017 00:00
Orbit: 460 x 514 km, 97.2° (Epoch: 21 November)

Date Brightness Start Highest point End Pass type
(mag) Time Alt. Az. Time Alt. Az. Time Alt. Az.
21 Nov 9.1 06:03:03 10° NE 06:06:19 28° E 06:09:34 10° SSE visible
21 Nov 7.2 18:09:58 10° S 18:13:22 55° W 18:16:53 10° NNW visible
22 Nov 10.0 05:40:36 10° ENE 05:42:43 14° E 05:44:49 10° SE visible
22 Nov 6.4 17:46:27 10° SSE 17:49:54 64° ENE 17:53:27 10° N visible
23 Nov 7.3 17:23:25 10° SE 17:26:31 30° ENE 17:29:39 10° N visible
23 Nov 9.9 18:58:28 10° WSW 19:00:06 13° W 19:01:46 10° WNW visible
24 Nov 8.8 18:33:29 10° SSW 18:36:28 26° W 18:39:30 10° NW visible
25 Nov 9.1 06:02:36 10° NE 06:05:52 28° E 06:09:08 10° SSE visible
25 Nov 7.2 18:09:26 10° S 18:12:53 56° W 18:16:26 10° NNW visible
26 Nov 10.0 05:40:09 10° ENE 05:42:15 14° E 05:44:21 10° SE visible
26 Nov 6.4 17:45:54 10° SSE 17:49:24 64° ENE 17:52:58 10° N visible
27 Nov 7.3 17:22:52 10° SE 17:25:59 30° ENE 17:29:10 10° N visible
27 Nov 9.9 18:57:50 10° WSW 18:59:34 13° W 19:01:19 10° WNW visible
28 Nov 8.2 17:00:28 10° ESE 17:02:39 16° ENE 17:04:51 10° NNE visible
28 Nov 8.8 18:32:53 10° SSW 18:35:55 26° W 18:39:00 10° NW visible
29 Nov 9.1 06:02:04 10° NE 06:05:21 28° E 06:08:36 10° SSE visible
29 Nov 7.2 18:08:50 10° S 18:12:20 57° W 18:15:54 10° NNW visible
30 Nov 10.0 05:39:37 10° ENE 05:41:42 14° E 05:43:47 10° SE visible
30 Nov 6.5 17:45:18 10° SSE 17:48:49 64° ENE 17:52:25 10° N visible
